SCP
0 0 0 0 0 0 0 0 0 0 0 0 0 0 0 0 0 0 0 0 0 0 0 0 0 0 0 0 0 0 0 0 0 0 0 0 0 0 0 0 0 0 0
0 0 0 0 0 0 0 0 0 0 0 0 0 0 0 0 0 0 0 0 0 0 0 0 0 0 0 0 0 0 0 0 0 0 0 0 0 0 0 0 0 0 0
0 0 0 0 0 0 0 0 0 0 0 0 0 0 0 0 0 0 0 0 0 0 0 0 0 0 0 0 0 0 0 0 0 0 0 0 0 0 0 0 0 0 0
0 0 0 0 0 0 0 0 0 0 0 0 0 0 0 0 0 0 0 0 0 0 0 0 0 0 0 0 0 0 0 0 0 0 0 0 0 0 0 0 0 0 0
0 0 0 0 0 0 0 0 0 0 0 0 0 0 0 0 0 0 0 0 0 0 0 0 0 0 0 0 0 0 0 0 0 0 0 0 0 0 0 0 0 0 0
0 0 0 0 0 0 0 0 0 0 0 0 0 0 0 0 0 0 0 0 0 0 0 0 0 0 0 0 0 0 0 0 0 0 0 0 0 0 0 0 0 0 0
0 0 0 0 0 0 0 0 0 0 0 0 0 0 0 0 0 0 0 0 0 0 0 0 0 0 0 0 0 0 0 0 0 0 0 0 0 0 0 0 0 0 0
0 0 0 0 0 0 0 0 0 0 0 0 0 0 0 0 0 0 0 0 0 0 0 0 0 0 0 0 0 0 0 0 0 0 0 0 0 0 0 0 0 0 0
0 0 0 0 0 0 0 0 0 0 0 0 0 0 0 0 0 0 0 0 0 0 0 0 0 0 0 0 0 0 0 0 0 0 0 0 0 0 0 0 0 0 0
0 0 0 0 0 0 0 0 0 0 0 0 0 0 0 0 0 0 0 0 0 0 0 0 0 0 0 0 0 0 0 0 0 0 0 0 0 0 0 0 0 0 0
0 0 0 0 0 0 0 0 0 0 0 0 0 0 0 0 0 0 0 0 0 0 0 0 0 0 0 0 0 0 0 0 0 0 0 0 0 0 0 0 0 0 0
0 0 -0 -0 -0 -0 -0 0 0 0 0 0 0 0 0 0 0 0 0 0 0 0 0 0 0 0 0 0 0 0 0 0 0 0 0 0 0 0 0 0 0 0 0
-0 -0 -0 -0 -0 -0 0 0 0 0 0 0 -0 0 0 0 0 0 0 0 0 0 0 0 0 0 0 0 0 0 0 0 0 0 0 0 0 0 0 0 0 0 0
-0 -0 -0 -0 0 0 0 0 0 -0 -0 0 0 0 0 0 0 0 0 0 0 0 0 0 0 0 0 0 0 0 0 0 0 0 0 0 0 0 0 0 0 0 0
-0 0 0 0 0 0 0 0 0 0 -0 -0 -0 0 0 0 0 0 0 0 0 0 0 0 0 0 0 0 0 0 0 0 0 0 0 0 0 0 0 0 0 0 0
0 0 0 0 0 0 0 0 0 0 0 0 0 -0 -0 -0 0 0 0 0 0 0 0 0 0 0 0 0 0 0 0 0 0 0 0 0 0 0 0 0 0 0 0
0 0 0 0 0 0 0 0 0 0 -0 -0 -0 -0 -0 0 0 0 0 0 0 0 0 0 0 0 0 0 0 0 0 0 0 0 0 0 0 0 0 0 0 0 0
0 0 0 0 0 0 0 0 0 0 0 0 0 0 0 0 0 0 0 0 0 0 0 0 0 0 0 0 0 0 0 0 0 0 0 0 0 0 0 0 0 0 0
0 0 0 0 0 0 0 0 0 0 0 0 0 0 0 0 0 0 0 0 0 0 0 0 0 0 0 0 0 0 0 0 0 0 0 0 0 0 0 0 0 0 0
0 0 0 0 0 0 0 0 0 0 0 0 0 0 0 0 0 0 0 0 0 0 0 0 0 0 0 0 0 0 0 0 0 0 0 0 0 0 0 0 0 0 0
0 0 0 0 0 0 0 0 0 0 0 0 0 0 0 0 0 0 0 -0 0 0 0 0 0 0 0 0 0 0 0 0 0 0 0 0 0 0 0 0 0 0 0
0 0 0 0 0 0 -0 -0 0 0 0 0 0 0 0 0 0 0 0 -0 0 0 0 0 0 0 0 0 0 0 0 0 0 0 0 0 0 0 0 0 0 0 0
0 -0 -0 -0 -0 0 -0 0 0 0 0 0 0 0 0 0 0 0 0 0 0 0 0 0 0 0 0 0 0 0 0 0 0 0 0 0 0 0 0 0 0 0 0
0 -0 -0 -0 0 0 0 0 0 0 0 0 0 0 0 0 0 0 0 0 0 0 0 0 0 0 0 0 0 0 0 0 0 0 0 0 0 0 0 0 0 0 0
0 0 0 0 0 0 0 0 0 0 0 0 0 0 0 0 0 0 0 0 0 0 0 0 0 0 0 0 0 0 0 0 0 0 0 0 0 0 0 0 0 0 0
0 0 0 0 0 0 0 0 0 0 0 0 0 0 0 0 0 0 0 0 0 0 0 0 0 0 0 0 0 0 0 0 0 0 0 0 0 0 0 0 0 0 0
Wind_Speed_500mb
53 52 51 53 57 65 66 67 73 74 79 82 82 83 83 80 80 81 79 76 70 69 67 66 70 70 71 68 72 67 66 62 62 56 57 58 60 62 61 60 63 66 69
38 40 46 48 52 50 58 66 70 69 73 80 81 86 83 85 81 79 81 81 77 76 74 73 75 75 75 77 78 83 78 74 73 71 62 52 67 72 69 70 73 74 77
32 17 13 17 32 46 50 55 62 72 73 74 82 90 97 95 93 92 88 86 84 83 83 81 83 82 79 85 79 79 92 92 82 86 72 31 42 54 73 82 81 82 83
20 19 18 15 9 18 31 44 53 65 77 80 84 85 86 94 88 91 90 89 87 86 84 83 86 84 83 80 82 86 83 99 85 89 99 93 79 47 45 64 72 88 90
28 23 18 15 16 15 13 22 32 41 57 75 85 88 87 87 92 91 91 89 90 87 86 84 86 91 91 88 83 85 89 102 97 101 100 106 102 97 79 67 68 72 80
40 39 34 26 21 21 23 23 23 24 29 43 63 77 84 86 88 87 87 86 83 80 83 86 91 93 93 95 97 97 95 93 99 103 110 109 114 117 108 104 102 93 84
48 54 60 60 59 59 56 44 33 29 26 26 33 47 62 73 79 82 84 82 81 80 77 76 83 89 94 95 97 101 100 101 105 103 115 106 119 117 119 101 99 87 86
35 40 48 49 51 50 51 52 53 47 33 29 30 35 43 53 63 68 71 74 75 74 71 69 71 78 85 90 96 99 101 103 108 111 113 116 123 110 109 126 115 95 84
44 41 38 45 45 43 44 46 47 49 48 42 33 32 38 46 52 55 56 59 59 58 58 61 63 69 75 81 87 93 99 103 108 114 114 118 111 119 120 125 121 116 77
40 41 44 41 37 37 36 35 37 40 40 41 41 40 35 34 34 35 39 43 46 48 51 54 59 64 70 75 79 86 91 96 104 108 109 112 111 110 126 121 119 115 113
35 34 33 33 38 37 39 38 35 33 29 30 34 36 35 32 27 34 41 44 46 48 52 56 61 65 68 72 77 82 84 90 91 91 101 107 105 103 109 121 120 117 115
17 22 29 34 37 40 43 43 39 34 34 37 38 37 39 42 45 51 53 52 56 59 61 64 70 75 76 75 77 78 80 83 86 84 91 101 101 104 109 114 115 117 108
25 30 34 37 44 45 46 44 45 46 45 42 41 43 46 47 50 53 56 59 63 66 69 70 75 78 81 82 81 78 78 82 82 84 87 90 92 90 95 110 113 108 106
35 39 42 45 47 48 49 52 52 56 60 61 60 58 54 53 56 60 63 68 72 75 76 78 80 80 79 79 80 79 81 83 84 84 83 83 80 85 91 100 99 103 102
37 38 36 37 40 43 48 53 57 62 68 71 74 72 68 67 65 64 68 69 71 74 78 81 81 81 81 81 78 78 80 80 83 82 82 80 76 81 85 91 95 96 95
29 30 32 33 36 41 46 48 51 52 56 61 67 72 74 68 66 66 67 69 71 71 72 73 73 74 74 76 74 72 75 77 80 82 82 78 75 79 78 86 89 87 85
23 28 33 37 41 45 50 54 56 58 61 62 64 66 69 69 66 64 66 68 67 68 69 71 71 73 70 64 64 66 71 75 80 79 80 77 73 75 75 78 79 79 75
27 31 36 37 39 43 48 53 57 61 65 66 68 71 74 75 69 64 63 63 66 71 74 74 72 71 70 63 61 61 68 76 77 76 72 71 72 70 69 68 68 69 66
30 34 39 42 44 47 50 54 56 60 64 67 69 70 72 77 81 81 75 69 67 66 65 68 72 74 71 60 58 58 66 72 75 69 66 68 69 64 61 58 58 60 59
33 41 43 46 49 52 57 58 60 62 66 70 73 74 75 78 81 82 83 81 79 78 76 71 65 67 68 66 61 54 62 70 69 66 66 63 61 55 53 51 52 56 61
43 50 55 57 58 61 65 66 66 65 67 68 70 71 73 74 75 78 79 79 77 76 75 75 68 61 58 56 54 53 57 63 63 59 57 52 50 45 36 40 46 52 55
54 59 66 69 66 64 67 70 72 73 73 72 71 71 71 69 70 71 71 75 78 79 75 69 65 57 52 45 42 43 41 54 51 50 44 38 34 29 27 39 37 44 53
63 66 70 75 74 68 69 76 74 74 76 76 74 71 67 63 64 71 75 75 72 68 67 64 61 54 46 43 38 40 41 45 40 31 27 23 20 21 25 33 30 41 53
69 74 75 79 84 75 73 75 77 77 77 77 75 71 67 69 68 67 67 66 65 64 61 59 55 48 42 37 33 30 27 29 23 23 16 12 11 19 27 37 33 45 45
79 77 78 80 82 79 79 76 76 75 77 74 72 72 71 67 68 65 62 60 57 55 48 42 38 36 32 28 20 15 16 18 16 14 6 12 16 24 32 36 33 34 35
83 80 78 81 84 84 85 82 74 73 71 73 74 72 71 71 64 61 56 47 40 30 23 18 18 18 18 14 5 1 3 8 10 6 2 13 16 25 30 33 33 28 30
Wind_Direction_500mb
269 262 258 259 254 248 245 244 242 243 241 241 241 242 242 244 246 248 251 252 255 256 252 252 249 248 249 253 250 247 246 243 240 236 238 239 240 242 243 245 248 247 244
287 275 263 256 255 254 249 246 245 243 244 244 245 245 248 249 250 252 253 253 252 254 254 254 256 254 253 257 252 250 247 241 242 232 235 238 242 244 245 244 244 245 245
299 315 312 284 258 258 258 255 253 249 248 247 246 246 245 249 250 250 252 253 253 253 255 256 256 258 256 254 257 260 249 246 249 238 235 222 237 251 249 248 248 246 246
53 51 52 42 337 283 264 260 258 255 252 249 248 250 251 252 258 257 258 257 256 256 257 258 257 259 259 257 261 258 258 256 250 245 237 239 247 242 251 255 252 251 248
46 46 32 5 347 332 312 273 266 263 259 254 252 252 253 257 258 260 261 259 258 258 256 255 257 259 260 258 260 260 260 257 254 257 253 246 243 246 249 254 257 252 256
54 50 41 27 11 357 344 332 319 299 277 263 257 258 258 258 261 265 265 266 266 263 258 259 259 260 262 263 264 265 263 263 261 259 263 255 253 251 247 251 256 256 262
62 62 58 55 53 49 43 32 10 345 327 306 283 270 266 264 265 267 269 271 271 270 269 264 259 260 263 265 267 267 266 267 261 264 267 262 263 259 261 255 256 257 260
59 62 55 48 43 37 36 35 34 26 2 325 300 282 272 267 267 268 271 272 272 273 273 270 265 261 260 261 261 264 265 267 264 265 264 264 269 256 270 260 259 258 262
45 37 31 25 25 24 25 21 18 16 11 7 344 309 286 277 274 273 272 271 269 269 270 268 265 263 261 260 261 261 261 262 263 265 264 261 266 264 270 262 264 264 255
23 18 15 12 9 7 5 5 1 360 0 358 355 349 332 310 294 287 284 281 279 277 275 273 270 266 264 262 261 261 262 262 263 264 263 263 261 269 268 269 263 263 259
17 9 10 2 349 347 348 350 344 343 340 338 339 339 334 323 311 308 310 304 295 290 286 281 278 273 270 267 265 264 265 265 265 265 263 264 266 265 267 271 269 266 261
20 5 354 346 342 342 345 352 349 344 335 327 322 318 315 311 301 300 303 300 297 293 290 286 282 279 276 272 269 268 267 267 269 269 267 265 265 265 267 268 268 269 268
11 1 356 358 358 358 356 352 349 347 345 340 327 316 309 301 295 291 289 290 290 289 286 286 284 283 281 280 278 275 272 270 269 270 269 269 268 267 264 266 269 268 265
11 3 359 353 346 343 339 339 340 339 336 334 332 327 319 307 299 293 290 289 288 287 287 286 286 284 281 277 277 275 272 272 271 271 271 270 268 268 268 270 269 266 264
18 10 359 349 344 338 333 332 332 331 328 326 324 325 322 316 311 303 295 290 288 288 288 288 288 285 280 276 274 274 273 272 272 273 272 271 269 270 269 270 271 270 268
3 357 350 344 337 333 328 325 323 322 321 320 320 320 320 319 316 312 305 297 294 292 289 288 288 286 283 281 277 272 271 271 271 271 271 271 268 270 268 269 272 272 267
360 348 339 331 327 325 322 319 319 319 317 314 314 316 316 316 315 313 311 309 305 301 297 293 290 287 284 280 275 271 268 267 268 269 272 272 267 269 270 271 272 271 267
348 345 339 330 325 322 318 316 315 314 313 313 313 310 310 313 315 315 312 312 312 311 306 300 294 290 287 282 276 273 270 268 268 270 270 270 266 266 268 270 268 264 256
346 340 335 332 328 326 321 320 318 316 316 315 313 311 310 309 309 310 310 310 310 312 310 307 303 296 289 280 273 269 269 271 275 273 270 269 270 269 267 266 261 253 245
333 333 332 332 327 322 320 320 319 318 316 315 313 313 312 309 306 306 307 307 307 306 304 300 299 295 292 287 278 270 272 274 275 276 275 274 272 268 266 264 258 243 234
327 328 326 324 324 321 317 316 316 316 313 312 312 312 309 308 308 307 308 307 308 309 307 304 300 296 292 288 281 274 270 273 276 276 276 276 275 275 269 256 250 242 234
320 322 320 319 319 318 313 311 311 312 311 310 309 310 309 308 307 306 305 306 307 305 304 303 303 303 299 295 288 277 273 271 270 274 278 276 274 270 248 239 242 237 218
313 316 315 313 313 313 309 307 308 308 308 307 306 306 305 306 306 306 305 305 306 306 304 301 303 307 303 298 290 280 275 266 265 274 280 272 250 233 220 223 224 213 203
309 313 311 309 307 308 307 307 306 304 304 305 305 304 303 305 304 304 303 302 301 301 301 302 302 302 299 293 287 280 259 253 262 288 272 244 219 199 205 201 203 200 208
306 305 304 304 304 304 307 307 303 299 298 298 300 302 300 303 303 303 303 301 300 298 299 301 300 298 293 288 285 273 263 263 275 290 235 170 158 175 192 195 200 213 217
300 301 301 302 302 301 303 306 300 295 292 293 297 300 300 300 300 302 304 302 298 293 296 305 311 313 307 298 262 310 202 266 300 319 205 161 167 185 195 203 207 207 195
Wind_Speed_850mb
53 52 51 53 57 65 66 67 73 74 79 82 82 83 83 80 80 81 79 76 70 69 67 66 70 70 71 68 72 67 66 62 62 56 57 58 60 62 61 60 63 66 69
38 40 46 48 52 50 58 66 70 69 73 80 81 86 83 85 81 79 81 81 77 76 74 73 75 75 75 77 78 83 78 74 73 71 62 52 67 72 69 70 73 74 77
32 17 13 17 32 46 50 55 62 72 73 74 82 90 97 95 93 92 88 86 84 83 83 81 83 82 79 85 79 79 92 92 82 86 72 31 42 54 73 82 81 82 83
20 19 18 15 9 18 31 44 53 65 77 80 84 85 86 94 88 91 90 89 87 86 84 83 86 84 83 80 82 86 83 99 85 89 99 93 79 47 45 64 72 88 90
28 23 18 15 16 15 13 22 32 41 57 75 85 88 87 87 92 91 91 89 90 87 86 84 86 91 91 88 83 85 89 102 97 101 100 106 102 97 79 67 68 72 80
40 39 34 26 21 21 23 23 23 24 29 43 63 77 84 86 88 87 87 86 83 80 83 86 91 93 93 95 97 97 95 93 99 103 110 109 114 117 108 104 102 93 84
48 54 60 60 59 59 56 44 33 29 26 26 33 47 62 73 79 82 84 82 81 80 77 76 83 89 94 95 97 101 100 101 105 103 115 106 119 117 119 101 99 87 86
35 40 48 49 51 50 51 52 53 47 33 29 30 35 43 53 63 68 71 74 75 74 71 69 71 78 85 90 96 99 101 103 108 111 113 116 123 110 109 126 115 95 84
44 41 38 45 45 43 44 46 47 49 48 42 33 32 38 46 52 55 56 59 59 58 58 61 63 69 75 81 87 93 99 103 108 114 114 118 111 119 120 125 121 116 77
40 41 44 41 37 37 36 35 37 40 40 41 41 40 35 34 34 35 39 43 46 48 51 54 59 64 70 75 79 86 91 96 104 108 109 112 111 110 126 121 119 115 113
35 34 33 33 38 37 39 38 35 33 29 30 34 36 35 32 27 34 41 44 46 48 52 56 61 65 68 72 77 82 84 90 91 91 101 107 105 103 109 121 120 117 115
17 22 29 34 37 40 43 43 39 34 34 37 38 37 39 42 45 51 53 52 56 59 61 64 70 75 76 75 77 78 80 83 86 84 91 101 101 104 109 114 115 117 108
25 30 34 37 44 45 46 44 45 46 45 42 41 43 46 47 50 53 56 59 63 66 69 70 75 78 81 82 81 78 78 82 82 84 87 90 92 90 95 110 113 108 106
35 39 42 45 47 48 49 52 52 56 60 61 60 58 54 53 56 60 63 68 72 75 76 78 80 80 79 79 80 79 81 83 84 84 83 83 80 85 91 100 99 103 102
37 38 36 37 40 43 48 53 57 62 68 71 74 72 68 67 65 64 68 69 71 74 78 81 81 81 81 81 78 78 80 80 83 82 82 80 76 81 85 91 95 96 95
29 30 32 33 36 41 46 48 51 52 56 61 67 72 74 68 66 66 67 69 71 71 72 73 73 74 74 76 74 72 75 77 80 82 82 78 75 79 78 86 89 87 85
23 28 33 37 41 45 50 54 56 58 61 62 64 66 69 69 66 64 66 68 67 68 69 71 71 73 70 64 64 66 71 75 80 79 80 77 73 75 75 78 79 79 75
27 31 36 37 39 43 48 53 57 61 65 66 68 71 74 75 69 64 63 63 66 71 74 74 72 71 70 63 61 61 68 76 77 76 72 71 72 70 69 68 68 69 66
30 34 39 42 44 47 50 54 56 60 64 67 69 70 72 77 81 81 75 69 67 66 65 68 72 74 71 60 58 58 66 72 75 69 66 68 69 64 61 58 58 60 59
33 41 43 46 49 52 57 58 60 62 66 70 73 74 75 78 81 82 83 81 79 78 76 71 65 67 68 66 61 54 62 70 69 66 66 63 61 55 53 51 52 56 61
43 50 55 57 58 61 65 66 66 65 67 68 70 71 73 74 75 78 79 79 77 76 75 75 68 61 58 56 54 53 57 63 63 59 57 52 50 45 36 40 46 52 55
54 59 66 69 66 64 67 70 72 73 73 72 71 71 71 69 70 71 71 75 78 79 75 69 65 57 52 45 42 43 41 54 51 50 44 38 34 29 27 39 37 44 53
63 66 70 75 74 68 69 76 74 74 76 76 74 71 67 63 64 71 75 75 72 68 67 64 61 54 46 43 38 40 41 45 40 31 27 23 20 21 25 33 30 41 53
69 74 75 79 84 75 73 75 77 77 77 77 75 71 67 69 68 67 67 66 65 64 61 59 55 48 42 37 33 30 27 29 23 23 16 12 11 19 27 37 33 45 45
79 77 78 80 82 79 79 76 76 75 77 74 72 72 71 67 68 65 62 60 57 55 48 42 38 36 32 28 20 15 16 18 16 14 6 12 16 24 32 36 33 34 35
83 80 78 81 84 84 85 82 74 73 71 73 74 72 71 71 64 61 56 47 40 30 23 18 18 18 18 14 5 1 3 8 10 6 2 13 16 25 30 33 33 28 30
Wind_Direction_850mb
269 262 258 259 254 248 245 244 242 243 241 241 241 242 242 244 246 248 251 252 255 256 252 252 249 248 249 253 250 247 246 243 240 236 238 239 240 242 243 245 248 247 244
287 275 263 256 255 254 249 246 245 243 244 244 245 245 248 249 250 252 253 253 252 254 254 254 256 254 253 257 252 250 247 241 242 232 235 238 242 244 245 244 244 245 245
299 315 312 284 258 258 258 255 253 249 248 247 246 246 245 249 250 250 252 253 253 253 255 256 256 258 256 254 257 260 249 246 249 238 235 222 237 251 249 248 248 246 246
53 51 52 42 337 283 264 260 258 255 252 249 248 250 251 252 258 257 258 257 256 256 257 258 257 259 259 257 261 258 258 256 250 245 237 239 247 242 251 255 252 251 248
46 46 32 5 347 332 312 273 266 263 259 254 252 252 253 257 258 260 261 259 258 258 256 255 257 259 260 258 260 260 260 257 254 257 253 246 243 246 249 254 257 252 256
54 50 41 27 11 357 344 332 319 299 277 263 257 258 258 258 261 265 265 266 266 263 258 259 259 260 262 263 264 265 263 263 261 259 263 255 253 251 247 251 256 256 262
62 62 58 55 53 49 43 32 10 345 327 306 283 270 266 264 265 267 269 271 271 270 269 264 259 260 263 265 267 267 266 267 261 264 267 262 263 259 261 255 256 257 260
59 62 55 48 43 37 36 35 34 26 2 325 300 282 272 267 267 268 271 272 272 273 273 270 265 261 260 261 261 264 265 267 264 265 264 264 269 256 270 260 259 258 262
45 37 31 25 25 24 25 21 18 16 11 7 344 309 286 277 274 273 272 271 269 269 270 268 265 263 261 260 261 261 261 262 263 265 264 261 266 264 270 262 264 264 255
23 18 15 12 9 7 5 5 1 360 0 358 355 349 332 310 294 287 284 281 279 277 275 273 270 266 264 262 261 261 262 262 263 264 263 263 261 269 268 269 263 263 259
17 9 10 2 349 347 348 350 344 343 340 338 339 339 334 323 311 308 310 304 295 290 286 281 278 273 270 267 265 264 265 265 265 265 263 264 266 265 267 271 269 266 261
20 5 354 346 342 342 345 352 349 344 335 327 322 318 315 311 301 300 303 300 297 293 290 286 282 279 276 272 269 268 267 267 269 269 267 265 265 265 267 268 268 269 268
11 1 356 358 358 358 356 352 349 347 345 340 327 316 309 301 295 291 289 290 290 289 286 286 284 283 281 280 278 275 272 270 269 270 269 269 268 267 264 266 269 268 265
11 3 359 353 346 343 339 339 340 339 336 334 332 327 319 307 299 293 290 289 288 287 287 286 286 284 281 277 277 275 272 272 271 271 271 270 268 268 268 270 269 266 264
18 10 359 349 344 338 333 332 332 331 328 326 324 325 322 316 311 303 295 290 288 288 288 288 288 285 280 276 274 274 273 272 272 273 272 271 269 270 269 270 271 270 268
3 357 350 344 337 333 328 325 323 322 321 320 320 320 320 319 316 312 305 297 294 292 289 288 288 286 283 281 277 272 271 271 271 271 271 271 268 270 268 269 272 272 267
360 348 339 331 327 325 322 319 319 319 317 314 314 316 316 316 315 313 311 309 305 301 297 293 290 287 284 280 275 271 268 267 268 269 272 272 267 269 270 271 272 271 267
348 345 339 330 325 322 318 316 315 314 313 313 313 310 310 313 315 315 312 312 312 311 306 300 294 290 287 282 276 273 270 268 268 270 270 270 266 266 268 270 268 264 256
346 340 335 332 328 326 321 320 318 316 316 315 313 311 310 309 309 310 310 310 310 312 310 307 303 296 289 280 273 269 269 271 275 273 270 269 270 269 267 266 261 253 245
333 333 332 332 327 322 320 320 319 318 316 315 313 313 312 309 306 306 307 307 307 306 304 300 299 295 292 287 278 270 272 274 275 276 275 274 272 268 266 264 258 243 234
327 328 326 324 324 321 317 316 316 316 313 312 312 312 309 308 308 307 308 307 308 309 307 304 300 296 292 288 281 274 270 273 276 276 276 276 275 275 269 256 250 242 234
320 322 320 319 319 318 313 311 311 312 311 310 309 310 309 308 307 306 305 306 307 305 304 303 303 303 299 295 288 277 273 271 270 274 278 276 274 270 248 239 242 237 218
313 316 315 313 313 313 309 307 308 308 308 307 306 306 305 306 306 306 305 305 306 306 304 301 303 307 303 298 290 280 275 266 265 274 280 272 250 233 220 223 224 213 203
309 313 311 309 307 308 307 307 306 304 304 305 305 304 303 305 304 304 303 302 301 301 301 302 302 302 299 293 287 280 259 253 262 288 272 244 219 199 205 201 203 200 208
306 305 304 304 304 304 307 307 303 299 298 298 300 302 300 303 303 303 303 301 300 298 299 301 300 298 293 288 285 273 263 263 275 290 235 170 158 175 192 195 200 213 217
300 301 301 302 302 301 303 306 300 295 292 293 297 300 300 300 300 302 304 302 298 293 296 305 311 313 307 298 262 310 202 266 300 319 205 161 167 185 195 203 207 207 195